Date,TemperatureHighF,TemperatureAvgF,TemperatureLowF,DewpointHighF,DewpointAvgF,DewpointLowF,HumidityHigh,HumidityAvg,HumidityLow,PressureMaxIn,PressureMinIn,WindSpeedMaxMPH,WindSpeedAvgMPH,GustSpeedMaxMPH,PrecipitationSumIn
2013-4-1,45,36,28,40,26,13,93,69,40,29.95,29.56,17,5,25,0.04
2013-4-2,34,29,23,27,20,16,91,72,50,30.11,29.94,15,6,22,0.00
2013-4-3,37,31,27,23,18,12,79,59,37,30.38,30.11,12,5,25,0.00
2013-4-4,57,37,24,24,20,16,76,53,21,30.36,29.91,11,2,17,0.00
2013-4-5,42,38,31,32,25,17,74,60,42,30.16,29.88,10,3,18,0.00
2013-4-6,46,36,24,24,19,13,76,51,30,30.34,30.06,9,2,13,0.00
2013-4-7,71,54,43,46,32,19,70,44,32,30.06,29.69,16,5,28,0.00
2013-4-8,55,45,40,45,36,33,91,72,52,30.13,29.75,9,2,15,0.06
2013-4-9,57,49,43,50,43,40,95,82,65,30.11,29.73,14,3,23,0.70
2013-4-10,46,42,38,45,40,37,96,95,89,30.10,29.89,9,2,13,0.63
2013-4-11,39,34,32,37,31,25,95,87,66,30.16,29.97,11,4,17,0.34
2013-4-12,51,41,34,47,37,31,95,87,69,29.99,29.55,15,6,22,0.77
2013-4-13,47,42,40,37,34,30,82,72,56,29.94,29.77,16,6,25,0.00
2013-4-14,45,39,35,34,29,25,87,67,50,30.22,29.94,15,3,20,0.00
2013-4-15,75,55,35,50,39,25,71,56,37,30.21,30.00,10,3,17,0.00
2013-4-16,66,57,44,58,49,33,95,75,63,30.24,29.95,14,3,20,0.18
2013-4-17,53,45,33,40,33,29,91,65,44,30.37,30.23,9,2,13,0.00
2013-4-18,78,61,42,58,48,32,75,63,46,30.26,29.70,11,4,20,0.00
2013-4-19,74,60,42,60,49,31,85,69,60,29.76,29.34,17,6,30,0.06
2013-4-20,43,39,33,34,27,19,88,62,49,30.42,29.73,16,7,25,0.01
2013-4-21,41,36,28,27,21,10,72,57,33,30.70,30.42,6,2,12,0.00
2013-4-22,59,46,31,31,26,20,66,46,29,30.63,30.35,12,2,18,0.00
2013-4-23,62,52,40,40,34,27,71,52,40,30.36,29.95,10,3,16,0.00
2013-4-24,69,56,40,55,43,34,84,63,50,29.98,29.56,20,3,27,0.13
2013-4-25,57,44,36,39,33,24,91,66,31,30.31,29.98,12,3,18,0.09
2013-4-26,51,44,37,40,33,27,93,68,42,30.48,30.31,7,2,12,0.05
2013-4-27,66,52,36,43,34,30,80,54,32,30.45,30.23,7,1,10,0.00
2013-4-28,75,61,51,49,40,35,85,48,24,30.23,30.02,11,3,21,0.06
2013-4-29,66,58,50,53,49,46,88,74,58,30.05,29.98,7,2,13,0.06
2013-4-30,75,63,56,56,53,50,89,70,47,30.21,30.04,7,2,15,0.02